Weather History for Kars, Turkey

Change the Weather History Date:

Friday, February 22, 2013

  Actual Average Record
Temperature  
Mean Temperature 16 °F -  
Max Temperature 26 °F 33 °F - ()
Min Temperature 6 °F 15 °F - ()
Degree Days  
Heating Degree Days 49    
Moisture  
Dew Point 14 °F    
Average Humidity 85    
Maximum Humidity 100    
Minimum Humidity 68    
Precipitation  
Precipitation 0.00 in 0.03 in - ()
Sea Level Pressure  
Sea Level Pressure 30.10 in    
Wind  
Wind Speed 1 mph ()    
Max Wind Speed 7 mph    
Max Gust Speed -    
Visibility 6.2 miles    
Events      
T = Trace of Precipitation, MM = Missing Value Source: Averaged Metar Reports

Daily Weather History Graph

Daily Weather History Graph

Search for Another Location

Airport:

Trip Planner

Search our weather history database for the weather conditions in past years. The results will help you decide how hot, cold, wet, or windy it might be!

Date:

Astronomy

Feb. 22, 2013 Rise Set
Actual Time 5:51 AM EET 4:50 PM EET
Civil Twilight 5:24 AM EET 5:18 PM EET
Nautical Twilight 4:52 AM EET 5:50 PM EET
Astronomical Twilight 4:21 AM EET 6:22 PM EET
Moon 1:40 PM EET (2/22) 3:23 AM EET (2/22)
Length of Visible Light 11h 54m
Length of Day
10h 59m
Waxing Gibbous, 88% of the Moon is Illuminated
Feb 22
Waxing Gibbous
Feb 25
Full
Mar 4
Last Quarter
Mar 11
New
Mar 19
First Quarter

Hourly Weather History & Observations

Time (EET) Temp. Windchill Dew Point Humidity Pressure Visibility Wind Dir Wind Speed Gust Speed Precip Events Conditions
12:50 AM 14.0 °F - 14.0 °F 100% 30.12 in 6.2 mi Calm Calm - N/A   Mostly Cloudy
1:50 AM 12.2 °F - 10.4 °F 92% 30.12 in 6.2 mi NNE 1.2 mph - N/A   Mostly Cloudy
2:00 AM 12 °F - 12 °F 100%  in 6 mi NNE 1.2 mph - -   Partly Cloudy
2:50 AM 12.2 °F - 12.2 °F 100% 30.12 in 6.2 mi Calm Calm - N/A   Mostly Cloudy
3:50 AM 12.2 °F 6.1 °F 10.4 °F 92% 30.12 in 6.2 mi ENE 3.5 mph - N/A   Mostly Cloudy
4:50 AM 6.8 °F - 5.0 °F 92% 30.12 in 6.2 mi Calm Calm - N/A   Mostly Cloudy
5:50 AM 10.4 °F - 10.4 °F 100% 30.15 in 6.2 mi Calm Calm - N/A   Mostly Cloudy
6:50 AM 10.4 °F - 8.6 °F 92% 30.15 in 6.2 mi Calm Calm - N/A   Mostly Cloudy
7:50 AM 12.2 °F - 8.6 °F 85% 30.15 in 6.2 mi Calm Calm - N/A   Mostly Cloudy
8:00 AM 11 °F - 11 °F 100%  in 6 mi Calm Calm - -   Mostly Cloudy
8:50 AM 14.0 °F - 8.6 °F 79% 30.15 in 6.2 mi Calm Calm - N/A   Mostly Cloudy
9:50 AM 17.6 °F - 12.2 °F 79% 30.18 in 6.2 mi Calm Calm - N/A   Overcast
10:50 AM 23.0 °F - 14.0 °F 68% 30.15 in 6.2 mi Calm Calm - N/A   Overcast
11:50 AM 23.0 °F - 14.0 °F 68% 30.15 in 6.2 mi Calm Calm - N/A   Overcast
12:50 PM 23.0 °F - 15.8 °F 74% 30.09 in 6.2 mi Variable 1.2 mph - N/A   Overcast
1:50 PM 23.0 °F - 17.6 °F 80% 30.09 in 6.2 mi SSW 1.2 mph - N/A   Overcast
2:00 PM 23 °F - 17 °F 68%  in 6 mi SSW 1.2 mph - -   Overcast
2:50 PM 24.8 °F - 17.6 °F 74% 30.09 in 6.2 mi Calm Calm - N/A   Overcast
3:50 PM 24.8 °F - 17.6 °F 74% 30.09 in 6.2 mi Calm Calm - N/A   Overcast
4:50 PM 23.0 °F 17.0 °F 19.4 °F 86% 30.09 in 6.2 mi South 4.6 mph - N/A   Overcast
5:50 PM 23.0 °F 14.7 °F 19.4 °F 86% 30.06 in 6.2 mi NNW 6.9 mph - N/A   Overcast
6:50 PM 23.0 °F 15.8 °F 17.6 °F 80% 30.04 in 6.2 mi NNE 5.8 mph - N/A   Mostly Cloudy
7:50 PM 21.2 °F 14.9 °F 17.6 °F 86% 30.06 in 6.2 mi South 4.6 mph - N/A   Mostly Cloudy
8:00 PM 22 °F - 18 °F 80%  in 6 mi South 4.6 mph - -   Mostly Cloudy
8:50 PM 23.0 °F - 17.6 °F 80% 30.04 in 6.2 mi Calm Calm - N/A   Mostly Cloudy
9:50 PM 19.4 °F - 15.8 °F 86% 30.04 in 6.2 mi Calm Calm - N/A   Mostly Cloudy
10:50 PM 17.6 °F - 15.8 °F 93% 30.04 in 6.2 mi North 1.2 mph - N/A   Mostly Cloudy
11:50 PM 17.6 °F 10.7 °F 15.8 °F 93% 30.01 in 6.2 mi SE 4.6 mph - N/A   Mostly Cloudy